�N����,����,�~����,�C��,���x,�C��,����,���ϕ���,�ő�u�ԕ���,�ő厞����,���˗�,�I�_���x,�n�����x,�ő啗���N��,DTYPE
"16/08/26","00:10",0.0,25.1,91.1,1000.5,311.4,0.3,1.1,332.1,0.00,23.6,27.2,"00:01:52",1
"16/08/26","00:20",0.0,25.0,91.3,1000.3,354.1,0.1,0.6,355.0,0.00,23.5,27.0,"00:18:24",1
"16/08/26","00:30",0.0,25.0,91.5,1000.0,312.1,0.1,0.4,311.5,0.00,23.6,27.0,"00:21:12",1
"16/08/26","00:40",0.0,25.0,91.7,1000.5,341.4,0.3,1.1,352.9,0.00,23.6,27.1,"00:35:28",1
"16/08/26","00:50",0.0,25.0,91.7,1000.0,349.4,1.0,1.6,350.3,0.00,23.6,27.0,"00:48:32",1
"16/08/26","01:00",0.0,24.9,92.0,1000.3,319.7,0.5,1.4,352.7,0.00,23.5,26.9,"00:59:52",1
"16/08/26","01:10",0.0,24.7,91.7,1000.0,347.3,0.7,1.4,333.4,0.00,23.3,26.8,"01:03:12",1
"16/08/26","01:20",0.0,24.5,91.8,1000.0,320.5,0.5,1.0,320.0,0.00,23.1,27.0,"01:16:48",1
"16/08/26","01:30",0.0,24.4,92.0,1000.0,333.2,0.7,1.2,327.1,0.00,23.1,26.7,"01:24:48",1
"16/08/26","01:40",0.0,24.3,92.0,1000.3,338.5,0.6,1.1,345.1,0.00,23.0,26.9,"01:38:48",1
"16/08/26","01:50",0.0,24.1,92.2,1000.3,314.9,0.6,1.0,317.8,0.00,22.8,26.6,"01:43:04",1
"16/08/26","02:00",0.0,24.0,92.5,1000.0,330.0,0.5,1.0,333.3,0.00,22.7,26.8,"01:55:20",1
"16/08/26","02:10",0.0,23.8,92.3,1000.0,332.2,0.7,1.3,328.6,0.00,22.5,26.6,"02:03:28",1
"16/08/26","02:20",0.0,23.7,92.2,1000.0,331.1,0.7,1.3,348.4,0.00,22.4,26.7,"02:10:16",1
"16/08/26","02:30",0.0,23.5,92.4,1000.0,308.2,0.7,1.2,336.0,0.00,22.2,26.5,"02:25:44",1
"16/08/26","02:40",0.0,23.4,92.6,1000.0,316.8,0.7,1.0,321.7,0.00,22.2,26.4,"02:35:52",1
"16/08/26","02:50",0.0,23.4,93.0,999.8,310.3,0.7,1.1,331.6,0.00,22.2,26.5,"02:49:20",1
"16/08/26","03:00",0.0,23.3,93.2,1000.0,327.2,1.0,1.6,332.5,0.00,22.2,26.2,"02:53:52",1
"16/08/26","03:10",0.0,23.2,93.3,999.8,323.1,1.0,1.3,327.8,0.00,22.1,26.5,"03:03:36",1
"16/08/26","03:20",0.0,23.1,93.5,999.8,303.0,0.7,1.2,322.6,0.00,22.0,26.2,"03:18:32",1
"16/08/26","03:30",0.0,23.0,93.6,999.8,309.0,1.0,1.3,317.6,0.00,22.0,26.1,"03:28:08",1
"16/08/26","03:40",0.0,22.9,93.8,999.8,309.8,1.1,1.7,336.4,0.00,21.9,26.0,"03:33:20",1
"16/08/26","03:50",0.0,22.7,94.0,999.8,300.1,0.8,1.0,309.2,0.00,21.7,26.1,"03:41:20",1
"16/08/26","04:00",0.0,22.7,94.2,1000.0,306.5,1.0,1.3,323.3,0.00,21.8,26.0,"03:57:12",1
"16/08/26","04:10",0.0,22.6,94.2,1000.0,294.1,1.0,1.1,324.5,0.00,21.7,25.9,"04:00:08",1
"16/08/26","04:20",0.0,22.5,94.4,1000.0,295.9,1.0,1.3,310.9,0.00,21.6,25.9,"04:16:32",1
"16/08/26","04:30",0.0,22.5,94.7,1000.0,301.2,1.0,1.4,311.9,0.00,21.6,25.7,"04:28:24",1
"16/08/26","04:40",0.0,22.5,94.6,1000.0,298.0,1.0,1.2,307.4,0.00,21.6,25.7,"04:39:04",1
"16/08/26","04:50",0.0,22.4,94.7,1000.0,302.9,1.2,1.8,322.0,0.00,21.5,25.8,"04:43:52",1
"16/08/26","05:00",0.0,22.4,94.8,1000.0,292.9,1.0,1.3,305.6,0.00,21.6,25.5,"04:50:40",1
"16/08/26","05:10",0.0,22.4,94.9,1000.0,314.0,1.3,1.8,320.7,0.00,21.6,25.7,"05:08:32",1
"16/08/26","05:20",0.0,22.3,94.9,1000.5,299.3,1.1,1.6,316.3,0.00,21.5,25.5,"05:15:28",1
"16/08/26","05:30",0.0,22.3,95.0,1000.5,300.5,1.1,1.6,311.1,0.00,21.5,25.4,"05:21:04",1
"16/08/26","05:40",0.0,22.3,95.2,1000.3,302.6,1.2,1.7,318.5,0.00,21.5,25.5,"05:37:12",1
"16/08/26","05:50",0.0,22.4,95.3,1000.5,298.6,1.1,1.6,301.7,0.00,21.7,25.7,"05:45:04",1
"16/08/26","06:00",0.0,22.7,95.2,1000.5,305.4,1.1,1.8,341.4,0.00,21.9,25.7,"05:50:40",1
"16/08/26","06:10",0.0,23.1,94.5,1000.5,318.4,0.7,1.2,348.1,0.00,22.2,25.4,"06:08:16",1
"16/08/26","06:20",0.0,23.7,93.6,1000.5,344.6,0.7,1.2,347.5,0.00,22.6,25.5,"06:10:16",1
"16/08/26","06:30",0.0,24.3,91.8,1000.5,354.3,0.7,1.2,350.6,0.01,22.9,25.5,"06:26:16",1
"16/08/26","06:40",0.0,24.8,88.0,1000.5,351.2,0.8,1.4,342.2,0.02,22.7,25.6,"06:34:56",1
"16/08/26","06:50",0.0,25.7,84.5,1000.5,8.0,0.5,1.0,346.6,0.04,22.9,25.7,"06:40:08",1
"16/08/26","07:00",0.0,26.3,82.7,1000.5,32.4,0.5,0.9,12.5,0.07,23.2,25.6,"06:51:04",1
"16/08/26","07:10",0.0,27.1,79.9,1000.5,29.8,0.5,1.0,14.8,0.10,23.4,25.7,"07:02:08",1
"16/08/26","07:20",0.0,27.3,77.8,1000.5,30.6,0.6,1.0,29.8,0.12,23.1,25.7,"07:11:12",1
"16/08/26","07:30",0.0,27.9,73.3,1000.0,112.1,0.3,0.8,23.8,0.14,22.7,25.9,"07:23:12",1
"16/08/26","07:40",0.0,28.4,70.5,999.3,163.3,0.6,1.4,139.3,0.16,22.6,25.9,"07:30:02",1
"16/08/26","07:50",0.0,28.4,71.0,999.6,150.8,0.5,1.3,143.8,0.14,22.7,26.1,"07:44:32",1
"16/08/26","08:00",0.0,28.8,69.9,999.6,118.8,0.6,1.4,126.6,0.20,22.8,26.1,"07:55:28",1
"16/08/26","08:10",0.0,29.4,66.2,1000.0,14.8,0.3,1.3,54.8,0.23,22.5,26.2,"08:08:00",1
"16/08/26","08:20",0.0,29.6,66.0,1000.3,117.6,0.7,1.8,3.8,0.26,22.6,26.4,"08:11:04",1
"16/08/26","08:30",0.0,29.7,63.4,1000.3,128.0,0.7,2.0,188.8,0.29,22.0,26.6,"08:29:04",1
"16/08/26","08:40",0.0,30.4,63.8,1000.3,148.1,0.7,1.6,197.8,0.31,22.8,26.6,"08:32:24",1
"16/08/26","08:50",0.0,30.5,60.1,1000.8,107.7,0.8,2.0,139.3,0.33,21.9,26.7,"08:41:28",1
"16/08/26","09:00",0.0,31.0,59.4,1000.8,54.9,0.7,2.1,43.6,0.36,22.2,27.1,"08:59:28",1
"16/08/26","09:10",0.0,31.1,59.4,1001.0,51.3,0.8,1.9,48.0,0.37,22.3,27.3,"09:00:32",1
"16/08/26","09:20",0.0,31.1,59.6,1001.0,90.0,1.1,2.4,8.2,0.40,22.3,27.3,"09:11:12",1
"16/08/26","09:30",0.0,31.8,58.1,1001.5,156.6,0.6,1.4,214.9,0.42,22.6,27.6,"09:27:20",1
"16/08/26","09:40",0.0,31.4,57.4,1001.7,179.1,1.5,3.3,202.4,0.44,22.0,27.8,"09:37:28",1
"16/08/26","09:50",0.0,31.3,58.5,1001.2,188.9,1.6,3.1,222.9,0.36,22.2,28.0,"09:43:12",1
"16/08/26","10:00",0.0,31.8,58.0,1001.5,93.1,0.5,1.4,126.7,0.31,22.6,28.0,"09:53:04",1
"16/08/26","10:10",0.0,32.2,55.0,1001.2,194.1,1.1,4.1,207.6,0.48,22.1,28.4,"10:09:28",1
"16/08/26","10:20",0.0,32.0,54.9,1001.5,135.4,1.6,3.1,220.6,0.50,21.8,28.4,"10:19:20",1
"16/08/26","10:30",0.0,32.7,53.5,1001.5,190.2,1.6,4.0,219.4,0.52,22.1,28.5,"10:27:52",1
"16/08/26","10:40",0.0,33.1,53.0,1001.7,136.0,0.8,2.1,131.6,0.54,22.3,29.1,"10:30:08",1
"16/08/26","10:50",0.0,31.8,53.9,1001.9,126.9,1.2,2.2,163.4,0.26,21.4,28.9,"10:42:16",1
"16/08/26","11:00",0.0,32.0,55.6,1001.5,88.5,0.6,1.8,102.9,0.22,22.0,29.1,"10:59:04",1
"16/08/26","11:10",0.0,32.2,54.9,1001.0,146.0,0.7,1.9,105.0,0.27,22.0,29.1,"11:05:12",1
"16/08/26","11:20",0.0,32.2,54.2,1000.5,154.4,1.0,2.6,201.9,0.25,21.8,29.2,"11:17:52",1
"16/08/26","11:30",0.0,32.4,55.6,1000.5,231.3,0.3,1.3,233.1,0.21,22.4,29.5,"11:20:32",1
"16/08/26","11:40",0.0,32.3,54.2,1000.0,185.4,1.0,2.8,204.6,0.23,21.9,29.4,"11:32:40",1
"16/08/26","11:50",0.0,32.8,54.2,1000.0,199.4,1.7,3.7,208.5,0.40,22.4,29.4,"11:42:40",1
"16/08/26","12:00",0.0,33.4,53.8,1000.0,212.4,1.1,2.9,225.0,0.43,22.8,29.7,"11:56:56",1
"16/08/26","12:10",0.0,33.2,53.5,999.8,216.4,1.6,3.4,217.0,0.37,22.5,29.8,"12:08:40",1
"16/08/26","12:20",0.2,34.2,52.7,1000.0,221.1,1.5,4.7,229.2,0.52,23.2,30.3,"12:13:04",1
"16/08/26","12:30",0.0,33.3,52.9,1000.5,200.3,1.7,3.7,222.4,0.33,22.4,30.4,"12:20:08",1
"16/08/26","12:40",0.0,33.7,53.5,999.6,153.1,1.6,3.2,191.7,0.42,23.0,30.5,"12:30:24",1
"16/08/26","12:50",0.0,34.4,51.7,999.8,157.4,1.3,3.4,205.7,0.51,23.1,30.7,"12:41:52",1
"16/08/26","13:00",0.0,34.7,50.1,999.8,181.1,1.8,4.3,214.1,0.56,22.8,30.9,"12:50:02",1
"16/08/26","13:10",0.0,34.9,50.4,999.6,184.3,1.1,4.0,222.0,0.57,23.1,31.2,"13:03:44",1
"16/08/26","13:20",0.0,35.3,47.4,1000.0,138.4,1.0,2.2,165.1,0.57,22.5,31.4,"13:19:04",1
"16/08/26","13:30",0.0,34.7,47.9,999.6,184.5,1.5,3.3,213.0,0.41,22.1,31.7,"13:27:36",1
"16/08/26","13:40",0.0,35.3,47.9,999.6,158.7,1.1,2.4,154.0,0.56,22.6,32.1,"13:34:56",1
"16/08/26","13:50",0.0,34.1,49.3,999.3,184.3,1.7,4.3,191.0,0.24,22.0,31.8,"13:42:40",1
"16/08/26","14:00",0.0,33.8,50.5,998.6,190.8,1.3,3.9,213.2,0.22,22.1,31.7,"13:58:56",1
"16/08/26","14:10",0.0,34.2,50.0,998.6,189.3,2.2,4.2,194.1,0.27,22.3,31.8,"14:01:28",1
"16/08/26","14:20",0.0,34.6,49.8,998.4,258.5,0.8,3.4,231.6,0.28,22.6,31.7,"14:13:12",1
"16/08/26","14:30",0.0,34.1,50.1,998.4,180.1,1.3,3.5,231.3,0.19,22.3,31.9,"14:20:02",1
"16/08/26","14:40",0.0,34.3,48.6,998.4,203.9,2.7,4.9,223.9,0.31,22.0,31.7,"14:39:52",1
"16/08/26","14:50",0.0,33.6,50.2,997.7,203.9,1.6,4.2,221.7,0.06,21.8,31.5,"14:47:20",1
"16/08/26","15:00",0.0,33.6,51.0,997.2,183.7,0.8,2.7,222.1,0.14,22.1,31.4,"14:50:16",1
"16/08/26","15:10",0.0,33.6,49.6,997.4,216.6,1.3,3.4,199.6,0.13,21.7,31.4,"15:09:28",1
"16/08/26","15:20",0.0,34.0,49.0,997.2,183.7,1.1,2.5,196.6,0.17,21.8,31.4,"15:18:00",1
"16/08/26","15:30",0.0,34.0,48.5,997.2,169.7,1.0,1.9,212.1,0.13,21.6,31.5,"15:24:16",1
"16/08/26","15:40",0.0,33.9,48.8,997.4,200.2,0.3,1.2,224.6,0.08,21.7,31.2,"15:33:20",1
"16/08/26","15:50",0.0,33.7,52.6,997.2,309.1,0.3,1.3,352.4,0.04,22.7,31.2,"15:44:08",1
"16/08/26","16:00",0.0,33.0,55.7,997.4,284.5,0.6,2.6,358.9,0.04,23.0,31.1,"15:59:28",1
"16/08/26","16:10",0.0,32.0,59.6,996.7,335.8,1.3,7.1,6.3,0.03,23.2,31.0,"16:08:48",1
"16/08/26","16:20",0.0,30.8,64.2,996.7,1.4,2.1,4.9,2.5,0.10,23.3,30.7,"16:13:44",1
"16/08/26","16:30",0.0,30.1,66.5,996.0,355.0,2.3,5.7,352.8,0.17,23.2,30.7,"16:27:36",1
"16/08/26","16:40",0.0,30.0,67.3,996.0,353.4,2.1,6.5,354.2,0.14,23.3,30.6,"16:31:28",1
"16/08/26","16:50",0.0,30.2,66.3,996.0,338.8,1.1,3.5,358.7,0.09,23.3,30.6,"16:45:36",1
"16/08/26","17:00",0.0,29.5,67.8,996.0,348.1,1.8,4.7,355.8,0.04,23.0,30.5,"16:58:32",1
"16/08/26","17:10",0.0,28.8,70.5,995.8,353.1,1.8,4.9,357.8,0.01,22.9,30.2,"17:03:36",1
"16/08/26","17:20",0.0,28.5,71.1,996.0,340.6,1.7,5.2,349.7,0.02,22.8,30.2,"17:15:12",1
"16/08/26","17:30",0.0,28.7,70.6,995.6,340.2,1.7,4.2,348.8,0.03,22.9,30.1,"17:22:00",1
"16/08/26","17:40",0.0,28.8,71.6,996.0,340.2,1.0,2.9,2.9,0.02,23.2,29.8,"17:31:04",1
"16/08/26","17:50",0.0,28.7,72.7,996.0,317.9,0.5,1.6,341.8,0.00,23.4,29.7,"17:45:44",1
"16/08/26","18:00",0.0,28.4,73.7,996.3,333.9,0.7,1.8,332.9,0.00,23.3,29.7,"17:58:16",1
"16/08/26","18:10",0.0,28.1,74.6,996.5,313.4,0.6,1.6,348.8,0.00,23.2,29.6,"18:03:04",1
"16/08/26","18:20",0.0,27.9,75.4,997.0,311.8,0.7,2.0,359.9,0.00,23.2,29.5,"18:16:56",1
"16/08/26","18:30",0.0,27.8,76.1,997.0,322.3,0.8,2.0,10.0,0.00,23.2,29.3,"18:26:24",1
"16/08/26","18:40",0.0,27.6,76.9,997.7,297.5,0.6,2.6,330.9,0.00,23.2,29.4,"18:36:40",1
"16/08/26","18:50",0.0,27.4,77.4,997.7,333.6,1.0,3.1,347.6,0.00,23.1,29.1,"18:47:52",1
"16/08/26","19:00",0.2,27.3,77.9,998.2,336.0,1.5,4.2,3.0,0.00,23.1,29.1,"18:57:36",1
"16/08/26","19:10",1.8,25.7,81.8,998.2,348.7,1.8,6.2,344.1,0.00,22.4,29.0,"19:08:16",1
"16/08/26","19:20",0.2,24.9,84.6,998.2,348.6,2.1,5.4,349.3,0.00,22.2,28.7,"19:11:52",1
"16/08/26","19:30",0.2,24.6,85.6,998.4,329.2,1.1,5.6,350.7,0.00,22.1,28.5,"19:20:48",1
"16/08/26","19:40",0.0,24.6,85.8,998.9,323.6,1.5,5.7,339.5,0.00,22.1,28.3,"19:35:12",1
"16/08/26","19:50",0.0,24.6,85.5,999.1,304.0,1.0,2.4,345.2,0.00,22.0,28.3,"19:42:56",1
"16/08/26","20:00",0.0,24.7,85.1,999.6,306.2,1.0,2.5,32.2,0.00,22.1,28.3,"19:50:08",1
"16/08/26","20:10",0.2,24.6,85.3,999.8,315.5,1.0,3.3,344.0,0.00,22.0,28.2,"20:05:28",1
"16/08/26","20:20",0.8,24.1,85.8,1000.0,303.4,1.1,3.7,342.0,0.00,21.6,28.0,"20:19:36",1
"16/08/26","20:30",0.6,23.9,87.6,1000.0,300.4,1.0,2.2,328.4,0.00,21.8,28.0,"20:21:04",1
"16/08/26","20:40",0.6,23.8,88.4,1000.3,315.3,1.1,2.2,327.5,0.00,21.8,27.7,"20:38:48",1
"16/08/26","20:50",0.2,23.7,88.9,1000.3,308.0,0.8,2.0,307.9,0.00,21.8,27.5,"20:41:20",1
"16/08/26","21:00",0.4,23.7,89.5,1000.3,309.7,0.7,2.0,322.3,0.00,21.9,27.4,"20:54:56",1
"16/08/26","21:10",0.2,23.7,89.8,1000.3,329.0,1.0,2.4,352.0,0.00,22.0,27.4,"21:08:48",1
"16/08/26","21:20",0.0,23.7,90.3,1000.3,349.0,1.0,1.9,8.1,0.00,22.1,27.2,"21:15:36",1
"16/08/26","21:30",0.0,23.6,90.3,1000.5,277.5,0.6,1.9,222.2,0.00,22.0,27.2,"21:23:28",1
"16/08/26","21:40",0.0,23.6,90.4,1000.0,335.4,0.3,1.7,349.6,0.00,22.0,27.0,"21:38:32",1
"16/08/26","21:50",0.0,23.7,90.3,1000.3,275.5,0.7,2.0,247.9,0.00,22.1,27.0,"21:41:52",1
"16/08/26","22:00",0.0,23.7,90.3,1000.5,299.2,0.2,0.8,320.2,0.00,22.1,27.0,"21:51:36",1
"16/08/26","22:10",0.0,23.7,90.6,1000.3,337.4,0.3,1.1,347.4,0.00,22.1,27.0,"22:05:12",1
"16/08/26","22:20",0.0,23.6,90.8,1000.5,219.2,0.1,0.6,330.4,0.00,22.0,26.8,"22:11:36",1
"16/08/26","22:30",0.0,23.6,91.2,1000.5,329.9,0.5,1.3,16.2,0.00,22.1,27.0,"22:23:20",1
"16/08/26","22:40",0.0,23.5,91.3,1000.8,306.7,0.5,1.1,352.2,0.00,22.0,26.8,"22:30:02",1
"16/08/26","22:50",0.0,23.5,91.4,1000.3,342.3,0.7,1.9,350.6,0.00,22.1,26.7,"22:48:24",1
"16/08/26","23:00",0.0,23.5,91.5,1000.3,345.1,0.8,1.9,353.4,0.00,22.1,26.7,"22:59:36",1
"16/08/26","23:10",0.0,23.4,91.6,1000.3,354.7,1.0,1.8,348.2,0.00,22.0,26.7,"23:04:24",1
"16/08/26","23:20",0.0,23.4,91.5,1000.8,335.4,1.0,2.7,343.8,0.00,22.0,26.5,"23:15:20",1
"16/08/26","23:30",0.0,23.4,91.5,1000.0,325.9,1.0,2.6,346.4,0.00,22.0,26.6,"23:22:00",1
"16/08/26","23:40",0.0,23.5,91.7,999.8,333.8,0.6,1.3,311.0,0.00,22.1,26.5,"23:34:08",1
"16/08/26","23:50",0.0,23.5,91.7,1000.0,327.2,0.7,1.6,354.2,0.00,22.1,26.4,"23:49:20",1
"16/08/26","24:00",0.0,23.5,91.8,1000.3,334.6,0.7,1.3,347.8,0.00,22.1,26.5,"23:58:48",1
